{"data":{"norad_id":14781,"intl_designator":"1984-021B","name":"UOSAT 2 (UO-11)","alt_names":[],"object_type":"PAYLOAD","status":"ACTIVE","operator":null,"country":"UK","launch_date":"1984-03-01","launch_site_code":"AFWTR","launch_vehicle":null,"mission":null,"orbit_class":"UNKNOWN","rcs_meters":0.4029,"size_class":null,"mass_kg":null,"dimensions":null,"purposes":["comms"],"wikipedia_slug":null,"has_3d_model":false,"image_url":null,"decayed_at":null,"tle_current":{"epoch":"2026-09-20T04:32:40.259040Z","epoch_age_seconds":38104,"freshness":"FRESH","line1":"1 14781U 84021B   26263.18935485  .00001052  00000+0  11210-3 0  9993","line2":"2 14781  97.8181 227.7740 0006408 221.8303 138.2426 14.91001415271285","mean_motion":14.91001415,"eccentricity":0.0006408,"inclination_deg":97.8181,"raan_deg":227.774,"arg_perigee_deg":221.8303,"mean_anomaly_deg":138.2426,"bstar":0.0001121,"rev_number":27128,"period_min":96.579385204675,"perigee_km":590.34344738935,"apogee_km":599.27997845983,"semimajor_km":6972.9487129246,"source":"CELESTRAK","updated_at":"2026-09-20T09:00:45.226507Z"}}}